FENGYUN 1C DEB, 37003

Orbit data source: Space-Track

FENGYUN 1C DEB, 37003 is space debris in SSO originally from a launch on Mon, 10 May 1999 UTC launched from the Taiyaun Space Center, China (TSC). Fengyun 1C debris stems from the Chinese weather satellite Fengyun-1C, which was intentionally destroyed by a Chinese anti-satellite missile in 2007. This event dramatically increased the amount of space debris, with thousands of trackable fragments posing hazards to satellites and human spaceflight. The Fengyun 1C debris cloud has become a focal point in discussions about space sustainability and the need for international regulations to prevent the creation of new debris.

Loading next visibility...
Identifier
37003, 1999-025ECK
Orbit
SSO
Country
Flag of CNCN / PRC
Related business
Manufacturer
Unknown
Mission
Spacecraft
Bus & Motor
Unknown
Mass
Unknown
Launch date (UTC)
1999-05-10 (27 years ago)
Launch vehicle
Unknown
Launch site
Taiyaun Space Center, China (TSC)
Object type
Payload
Rocket body
Debris
Shape & HBR
Unknown shape, 0.1 m
Radar Cross Section
Small (<0.1 m²)

Expand to show TLE details & history
Last TLE update: 6 days ago

TLE from 6 days ago
0 FENGYUN 1C DEB
1 37003U 99025ECK 26202.28312882  .00000681  00000-0  50383-3 0  9991
2 37003  98.8300 222.2076 0094156 273.9389 145.8622 13.96598559637352
Epoch: 2026-07-21T06:47Z
TLE epoch observation values (Epoch: 2026-07-21T06:47:42.330Z)
Latitude
59.32184°
Longitude
166.12658°
Altitude
972.588 km
Speed
7.342 km/s
True Right ascension
13h 48m 25s
True Declination
59° 10' 30"
Sunlit
Object was in daylight at epoch
Visualization orbit readout
Latitude
Unknown
Longitude
Unknown
Altitude
Unknown
Speed
Unknown
Apparent Right ascension
Unknown
Apparent Declination
Unknown
Sunlit
N/A
Visualization observer readout
Local Sidereal Time
20:29:48
Azimuth
Unknown
Elevation
Unknown
Doppler factor
Unknown
Orbital elements
Apogee altitude
971.347 km
Perigee altitude
834.239 km
Semi-major axis
7,280.93 km
Eccentricity
0.00942
Inclination
98.83°
RAAN
222.2076°
Arg. of periapsis
273.9389°
True anomaly
146.46184°
Mean anomaly
145.8622°
Eccentric anomaly
146.1626°
Mean motion
3.49352 °/min
Orbital period
103.05 mins
BSTAR
0.00050383
Loading maneuver chart data...
Computing Atmospheric mass density...

Documentation

Showing up to 5 results
|